| time (UTC) | temp F | wind direction | speed MPH | gust MPH | rain 1hr in | rain 24hr in | rain mn in | humidity % | barometer mb |
| 20260902230602 | 59 | 208 | 2.0 | 6.0 | 0.00 | 0.00 | 0.00 | 79 | 1019.4 |
| 20260902230110 | 59 | 212 | 2.0 | 6.0 | 0.00 | 0.00 | 0.00 | 79 | 1019.4 |
| 20260902225557 | 59 | 214 | 2.0 | 6.0 | 0.00 | 0.00 | 0.00 | 79 | 1019.5 |
| 20260902225104 | 59 | 215 | 2.0 | 4.0 | 0.00 | 0.00 | 0.00 | 79 | 1019.5 |
| 20260902224608 | 59 | 215 | 0.0 | 4.0 | 0.00 | 0.00 | 0.00 | 79 | 1019.5 |
| 20260902224102 | 59 | 215 | 1.0 | 4.0 | 0.00 | 0.00 | 0.00 | 79 | 1019.5 |
| 20260902223558 | 59 | 216 | 1.0 | 4.0 | 0.00 | 0.00 | 0.00 | 79 | 1019.4 |
| 20260902223102 | 59 | 217 | 1.0 | 5.0 | 0.00 | 0.00 | 0.00 | 79 | 1019.5 |
| 20260902222558 | 59 | 214 | 1.0 | 5.0 | 0.00 | 0.00 | 0.00 | 79 | 1019.6 |
| 20260902222057 | 59 | 215 | 2.0 | 5.0 | 0.00 | 0.00 | 0.00 | 79 | 1019.6 |
| 20260902221628 | 59 | 223 | 1.0 | 5.0 | 0.00 | 0.00 | 0.00 | 79 | 1019.7 |
| 20260902221059 | 59 | 224 | 2.0 | 5.0 | 0.00 | 0.00 | 0.00 | 80 | 1019.6 |
| 20260902220558 | 59 | 263 | 1.0 | 4.0 | 0.00 | 0.00 | 0.00 | 80 | 1019.6 |
| 20260902220110 | 59 | 263 | 2.0 | 4.0 | 0.00 | 0.00 | 0.00 | 80 | 1019.5 |
| 20260902215558 | 59 | 263 | 2.0 | 4.0 | 0.00 | 0.00 | 0.00 | 79 | 1019.5 |
| 20260902215058 | 59 | 263 | 1.0 | 4.0 | 0.00 | 0.00 | 0.00 | 78 | 1019.5 |
| 20260902214609 | 60 | 0 | 1.0 | 4.0 | 0.00 | 0.00 | 0.00 | 77 | 1019.6 |
| 20260902214100 | 60 | 263 | 1.0 | 4.0 | 0.00 | 0.00 | 0.00 | 76 | 1019.6 |
| 20260902213558 | 60 | 263 | 1.0 | 4.0 | 0.00 | 0.00 | 0.00 | 76 | 1019.6 |
| 20260902213100 | 61 | 0 | 0.0 | 4.0 | 0.00 | 0.00 | 0.00 | 76 | 1019.5 |
| 20260902212558 | 61 | 263 | 0.0 | 3.0 | 0.00 | 0.00 | 0.00 | 75 | 1019.5 |
| 20260902212057 | 61 | 263 | 0.0 | 3.0 | 0.00 | 0.00 | 0.00 | 75 | 1019.5 |
| 20260902211558 | 61 | 0 | 2.0 | 3.0 | 0.00 | 0.00 | 0.00 | 74 | 1019.5 |
| 20260902211056 | 61 | 263 | 0.0 | 2.0 | 0.00 | 0.00 | 0.00 | 74 | 1019.5 |
| 20260902210600 | 61 | 263 | 1.0 | 3.0 | 0.00 | 0.00 | 0.00 | 73 | 1019.5 |
| 20260902210103 | 61 | 263 | 1.0 | 4.0 | 0.00 | 0.00 | 0.00 | 73 | 1019.5 |
| 20260902205601 | 61 | 263 | 1.0 | 4.0 | 0.00 | 0.00 | 0.00 | 73 | 1019.5 |
| 20260902205056 | 61 | 263 | 2.0 | 6.0 | 0.00 | 0.00 | 0.00 | 73 | 1019.5 |
| 20260902204604 | 61 | 263 | 2.0 | 6.0 | 0.00 | 0.00 | 0.00 | 73 | 1019.6 |
| 20260902204056 | 61 | 265 | 2.0 | 6.0 | 0.00 | 0.00 | 0.00 | 73 | 1019.6 |
| 20260902203556 | 61 | 269 | 2.0 | 6.0 | 0.00 | 0.00 | 0.00 | 72 | 1019.6 |
| 20260902203058 | 62 | 270 | 3.0 | 7.0 | 0.00 | 0.00 | 0.00 | 72 | 1019.5 |
| 20260902202557 | 62 | 263 | 3.0 | 7.0 | 0.00 | 0.00 | 0.00 | 72 | 1019.5 |
| 20260902202057 | 62 | 273 | 4.0 | 8.0 | 0.00 | 0.00 | 0.00 | 72 | 1019.5 |
| 20260902201606 | 61 | 255 | 4.0 | 8.0 | 0.00 | 0.00 | 0.00 | 73 | 1019.5 |
| 20260902201056 | 60 | 265 | 4.0 | 8.0 | 0.00 | 0.00 | 0.00 | 74 | 1019.5 |
| 20260902200557 | 60 | 256 | 4.0 | 7.0 | 0.00 | 0.00 | 0.00 | 75 | 1019.6 |
| 20260902200105 | 60 | 259 | 3.0 | 7.0 | 0.00 | 0.00 | 0.00 | 74 | 1019.5 |
| 20260902195557 | 60 | 247 | 3.0 | 7.0 | 0.00 | 0.00 | 0.00 | 74 | 1019.4 |
| 20260902195056 | 60 | 248 | 3.0 | 7.0 | 0.00 | 0.00 | 0.00 | 74 | 1019.3 |
| 20260902194605 | 60 | 242 | 2.0 | 5.0 | 0.00 | 0.00 | 0.00 | 74 | 1019.3 |
| 20260902194056 | 61 | 240 | 2.0 | 5.0 | 0.00 | 0.00 | 0.00 | 75 | 1019.3 |
| 20260902193557 | 61 | 239 | 2.0 | 7.0 | 0.00 | 0.00 | 0.00 | 74 | 1019.3 |
| 20260902193108 | 61 | 236 | 3.0 | 7.0 | 0.00 | 0.00 | 0.00 | 74 | 1019.3 |
| 20260902192559 | 61 | 233 | 2.0 | 5.0 | 0.00 | 0.00 | 0.00 | 74 | 1019.2 |
| 20260902192056 | 61 | 230 | 2.0 | 5.0 | 0.00 | 0.00 | 0.00 | 74 | 1019.3 |
| 20260902191634 | 61 | 230 | 3.0 | 5.0 | 0.00 | 0.00 | 0.00 | 74 | 1019.2 |
| 20260902191059 | 61 | 230 | 2.0 | 4.0 | 0.00 | 0.00 | 0.00 | 73 | 1019.2 |
| 20260902190558 | 61 | 232 | 2.0 | 4.0 | 0.00 | 0.00 | 0.00 | 73 | 1019.1 |
| 20260902185558 | 61 | 236 | 1.0 | 4.0 | 0.00 | 0.00 | 0.00 | 74 | 1019.1 |
| 20260902185101 | 62 | 236 | 2.0 | 4.0 | 0.00 | 0.00 | 0.00 | 73 | 1019.1 |
| 20260902184558 | 62 | 236 | 2.0 | 4.0 | 0.00 | 0.00 | 0.00 | 73 | 1018.9 |
| 20260902184056 | 62 | 236 | 2.0 | 4.0 | 0.00 | 0.00 | 0.00 | 72 | 1018.9 |
| 20260902183559 | 63 | 236 | 2.0 | 4.0 | 0.00 | 0.00 | 0.00 | 71 | 1018.9 |
| 20260902183127 | 63 | 237 | 2.0 | 5.0 | 0.00 | 0.00 | 0.00 | 70 | 1018.8 |
| 20260902182555 | 64 | 237 | 2.0 | 5.0 | 0.00 | 0.00 | 0.00 | 69 | 1018.8 |
| 20260902182056 | 64 | 238 | 2.0 | 5.0 | 0.00 | 0.00 | 0.00 | 68 | 1018.7 |
| 20260902181612 | 64 | 241 | 3.0 | 5.0 | 0.00 | 0.00 | 0.00 | 67 | 1018.7 |
| 20260902181055 | 65 | 246 | 3.0 | 5.0 | 0.00 | 0.00 | 0.00 | 66 | 1018.7 |
| 20260902180556 | 65 | 248 | 2.0 | 5.0 | 0.00 | 0.00 | 0.00 | 66 | 1018.7 |
| 20260902180104 | 65 | 248 | 2.0 | 5.0 | 0.00 | 0.00 | 0.00 | 65 | 1018.7 |
| 20260902175557 | 66 | 248 | 2.0 | 5.0 | 0.00 | 0.00 | 0.00 | 64 | 1018.7 |
| 20260902175057 | 66 | 248 | 2.0 | 4.0 | 0.00 | 0.00 | 0.00 | 63 | 1018.7 |
| 20260902174611 | 67 | 248 | 2.0 | 5.0 | 0.00 | 0.00 | 0.00 | 61 | 1018.6 |
| 20260902174057 | 67 | 248 | 2.0 | 8.0 | 0.00 | 0.00 | 0.00 | 60 | 1018.6 |
| 20260902173558 | 67 | 248 | 3.0 | 8.0 | 0.00 | 0.00 | 0.00 | 60 | 1018.5 |
| 20260902173113 | 67 | 252 | 4.0 | 9.0 | 0.00 | 0.00 | 0.00 | 59 | 1018.6 |
| 20260902172558 | 68 | 265 | 4.0 | 10.0 | 0.00 | 0.00 | 0.00 | 59 | 1018.6 |
| 20260902172058 | 68 | 252 | 4.0 | 10.0 | 0.00 | 0.00 | 0.00 | 59 | 1018.6 |
| 20260902171619 | 68 | 270 | 4.0 | 11.0 | 0.00 | 0.00 | 0.00 | 58 | 1018.5 |
| 20260902171058 | 68 | 244 | 5.0 | 11.0 | 0.00 | 0.00 | 0.00 | 57 | 1018.5 |
| 20260902170557 | 68 | 276 | 5.0 | 10.0 | 0.00 | 0.00 | 0.00 | 57 | 1018.5 |
| 20260902170103 | 69 | 256 | 4.0 | 13.0 | 0.00 | 0.00 | 0.00 | 57 | 1018.5 |
| 20260902165558 | 69 | 265 | 5.0 | 13.0 | 0.00 | 0.00 | 0.00 | 56 | 1018.5 |
| 20260902165058 | 69 | 261 | 6.0 | 10.0 | 0.00 | 0.00 | 0.00 | 56 | 1018.4 |
| 20260902164611 | 69 | 264 | 3.0 | 10.0 | 0.00 | 0.00 | 0.00 | 56 | 1018.4 |
| 20260902164057 | 69 | 267 | 5.0 | 14.0 | 0.00 | 0.00 | 0.00 | 55 | 1018.5 |
| 20260902163557 | 70 | 242 | 5.0 | 14.0 | 0.00 | 0.00 | 0.00 | 54 | 1018.4 |
| 20260902163106 | 70 | 271 | 6.0 | 14.0 | 0.00 | 0.00 | 0.00 | 54 | 1018.5 |
| 20260902162557 | 71 | 256 | 6.0 | 11.0 | 0.00 | 0.00 | 0.00 | 53 | 1018.4 |
| 20260902162058 | 71 | 274 | 6.0 | 11.0 | 0.00 | 0.00 | 0.00 | 55 | 1018.5 |
| 20260902161606 | 71 | 257 | 4.0 | 10.0 | 0.00 | 0.00 | 0.00 | 53 | 1018.5 |
| 20260902161057 | 71 | 260 | 4.0 | 11.0 | 0.00 | 0.00 | 0.00 | 53 | 1018.5 |
| 20260902160557 | 71 | 284 | 6.0 | 11.0 | 0.00 | 0.00 | 0.00 | 53 | 1018.5 |
| 20260902160116 | 70 | 267 | 5.0 | 13.0 | 0.00 | 0.00 | 0.00 | 53 | 1018.5 |
| 20260902155557 | 70 | 236 | 5.0 | 13.0 | 0.00 | 0.00 | 0.00 | 54 | 1018.5 |
| 20260902155057 | 71 | 246 | 7.0 | 13.0 | 0.00 | 0.00 | 0.00 | 53 | 1018.5 |
| 20260902154609 | 71 | 260 | 8.0 | 14.0 | 0.00 | 0.00 | 0.00 | 52 | 1018.5 |
| 20260902154103 | 71 | 243 | 7.0 | 14.0 | 0.00 | 0.00 | 0.00 | 52 | 1018.5 |
| 20260902153557 | 72 | 270 | 5.0 | 11.0 | 0.00 | 0.00 | 0.00 | 53 | 1018.5 |
| 20260902153101 | 72 | 243 | 2.0 | 14.0 | 0.00 | 0.00 | 0.00 | 53 | 1018.5 |
| 20260902152557 | 72 | 246 | 7.0 | 14.0 | 0.00 | 0.00 | 0.00 | 53 | 1018.6 |
| 20260902152059 | 72 | 246 | 7.0 | 14.0 | 0.00 | 0.00 | 0.00 | 53 | 1018.6 |
| 20260902151601 | 72 | 259 | 8.0 | 12.0 | 0.00 | 0.00 | 0.00 | 52 | 1018.6 |
| 20260902151057 | 73 | 279 | 4.0 | 9.0 | 0.00 | 0.00 | 0.00 | 53 | 1018.6 |
| 20260902150556 | 72 | 249 | 4.0 | 9.0 | 0.00 | 0.00 | 0.00 | 55 | 1018.7 |
| 20260902150109 | 71 | 288 | 2.0 | 9.0 | 0.00 | 0.00 | 0.00 | 56 | 1018.7 |
| 20260902145621 | 71 | 339 | 5.0 | 9.0 | 0.00 | 0.00 | 0.00 | 55 | 1018.7 |
| 20260902145057 | 71 | 284 | 4.0 | 9.0 | 0.00 | 0.00 | 0.00 | 56 | 1018.7 |
| 20260902144605 | 71 | 269 | 3.0 | 8.0 | 0.00 | 0.00 | 0.00 | 57 | 1018.8 |
| 20260902144057 | 70 | 263 | 4.0 | 9.0 | 0.00 | 0.00 | 0.00 | 58 | 1018.9 |
| 20260902143558 | 71 | 261 | 2.0 | 9.0 | 0.00 | 0.00 | 0.00 | 59 | 1018.9 |
| 20260902143109 | 70 | 282 | 1.0 | 10.0 | 0.00 | 0.00 | 0.00 | 61 | 1018.9 |
| 20260902142557 | 70 | 296 | 4.0 | 11.0 | 0.00 | 0.00 | 0.00 | 60 | 1019.0 |
| 20260902142057 | 70 | 332 | 6.0 | 11.0 | 0.00 | 0.00 | 0.00 | 60 | 1019.0 |
| 20260902141602 | 70 | 352 | 2.0 | 8.0 | 0.00 | 0.00 | 0.00 | 62 | 1019.1 |
| 20260902141057 | 70 | 302 | 3.0 | 9.0 | 0.00 | 0.00 | 0.00 | 62 | 1019.0 |
| 20260902140558 | 70 | 309 | 3.0 | 9.0 | 0.00 | 0.00 | 0.00 | 62 | 1019.0 |
| 20260902140100 | 70 | 340 | 2.0 | 9.0 | 0.00 | 0.00 | 0.00 | 61 | 1018.9 |
| 20260902135556 | 70 | 0 | 2.0 | 9.0 | 0.00 | 0.00 | 0.00 | 63 | 1019.0 |
| 20260902135057 | 70 | 254 | 4.0 | 10.0 | 0.00 | 0.00 | 0.00 | 62 | 1019.1 |
| 20260902134606 | 71 | 261 | 5.0 | 12.0 | 0.00 | 0.00 | 0.00 | 61 | 1018.9 |
| 20260902134057 | 71 | 257 | 7.0 | 12.0 | 0.00 | 0.00 | 0.00 | 61 | 1019.0 |
| 20260902133557 | 71 | 247 | 4.0 | 11.0 | 0.00 | 0.00 | 0.00 | 62 | 1019.0 |
| 20260902133108 | 70 | 291 | 4.0 | 11.0 | 0.00 | 0.00 | 0.00 | 64 | 1019.1 |
| 20260902132558 | 70 | 252 | 3.0 | 10.0 | 0.00 | 0.00 | 0.00 | 63 | 1019.2 |
| 20260902132057 | 70 | 0 | 4.0 | 10.0 | 0.00 | 0.00 | 0.00 | 64 | 1019.2 |
| 20260902131602 | 70 | 279 | 5.0 | 12.0 | 0.00 | 0.00 | 0.00 | 63 | 1019.2 |
| 20260902131058 | 70 | 224 | 3.0 | 12.0 | 0.00 | 0.00 | 0.00 | 64 | 1019.2 |
| 20260902130556 | 71 | 235 | 6.0 | 11.0 | 0.00 | 0.00 | 0.00 | 63 | 1019.2 |
| 20260902130105 | 70 | 239 | 5.0 | 11.0 | 0.00 | 0.00 | 0.00 | 66 | 1019.2 |
| 20260902125556 | 69 | 215 | 6.0 | 11.0 | 0.00 | 0.00 | 0.00 | 66 | 1019.4 |
| 20260902125100 | 68 | 247 | 5.0 | 12.0 | 0.00 | 0.00 | 0.00 | 69 | 1019.4 |
| 20260902124604 | 68 | 229 | 8.0 | 13.0 | 0.00 | 0.00 | 0.00 | 68 | 1019.5 |
| 20260902124100 | 68 | 222 | 8.0 | 13.0 | 0.00 | 0.00 | 0.00 | 67 | 1019.6 |
| 20260902123557 | 70 | 236 | 4.0 | 10.0 | 0.00 | 0.00 | 0.00 | 68 | 1019.5 |
| 20260902123107 | 69 | 360 | 4.0 | 11.0 | 0.00 | 0.00 | 0.00 | 68 | 1019.5 |
| 20260902122559 | 69 | 232 | 6.0 | 11.0 | 0.00 | 0.00 | 0.00 | 68 | 1019.5 |
| 20260902122056 | 68 | 252 | 7.0 | 12.0 | 0.00 | 0.00 | 0.00 | 68 | 1019.5 |
| 20260902121600 | 68 | 250 | 7.0 | 12.0 | 0.00 | 0.00 | 0.00 | 71 | 1019.6 |
| 20260902121058 | 68 | 278 | 6.0 | 12.0 | 0.00 | 0.00 | 0.00 | 70 | 1019.5 |
| 20260902120558 | 68 | 279 | 6.0 | 12.0 | 0.00 | 0.00 | 0.00 | 70 | 1019.5 |
| 20260902120059 | 68 | 247 | 6.0 | 13.0 | 0.00 | 0.00 | 0.00 | 72 | 1019.6 |
| 20260902115556 | 67 | 273 | 8.0 | 13.0 | 0.00 | 0.00 | 0.00 | 72 | 1019.6 |
| 20260902115056 | 67 | 268 | 8.0 | 13.0 | 0.00 | 0.00 | 0.00 | 72 | 1019.6 |
| 20260902114606 | 66 | 254 | 5.0 | 11.0 | 0.00 | 0.00 | 0.00 | 74 | 1019.6 |
| 20260902114058 | 66 | 286 | 6.0 | 12.0 | 0.00 | 0.00 | 0.00 | 74 | 1019.6 |
| 20260902113556 | 65 | 302 | 3.0 | 12.0 | 0.00 | 0.00 | 0.00 | 75 | 1019.7 |
| 20260902113106 | 65 | 275 | 7.0 | 12.0 | 0.00 | 0.00 | 0.00 | 75 | 1019.7 |
| 20260902112558 | 65 | 274 | 6.0 | 12.0 | 0.00 | 0.00 | 0.00 | 76 | 1019.7 |
| 20260902112057 | 65 | 266 | 4.0 | 12.0 | 0.00 | 0.00 | 0.00 | 77 | 1019.7 |
| 20260902111607 | 66 | 256 | 5.0 | 12.0 | 0.00 | 0.00 | 0.00 | 75 | 1019.7 |
| 20260902111057 | 66 | 282 | 6.0 | 12.0 | 0.00 | 0.00 | 0.00 | 73 | 1019.7 |
| 20260902110557 | 67 | 243 | 8.0 | 14.0 | 0.00 | 0.00 | 0.00 | 71 | 1019.7 |
| 20260902110103 | 68 | 262 | 6.0 | 14.0 | 0.00 | 0.00 | 0.00 | 71 | 1019.7 |
| 20260902105556 | 68 | 232 | 7.0 | 14.0 | 0.00 | 0.00 | 0.00 | 70 | 1019.8 |
| 20260902105056 | 68 | 278 | 5.0 | 12.0 | 0.00 | 0.00 | 0.00 | 71 | 1019.7 |
| 20260902104615 | 68 | 261 | 5.0 | 12.0 | 0.00 | 0.00 | 0.00 | 70 | 1019.8 |
| 20260902104056 | 67 | 265 | 5.0 | 12.0 | 0.00 | 0.00 | 0.00 | 72 | 1019.8 |
| 20260902103556 | 66 | 273 | 3.0 | 10.0 | 0.00 | 0.00 | 0.00 | 72 | 1019.8 |
| 20260902103105 | 66 | 235 | 4.0 | 12.0 | 0.00 | 0.00 | 0.00 | 72 | 1019.9 |
| 20260902102558 | 66 | 250 | 6.0 | 12.0 | 0.00 | 0.00 | 0.00 | 72 | 1019.8 |
| 20260902102058 | 66 | 247 | 4.0 | 9.0 | 0.00 | 0.00 | 0.00 | 72 | 1019.9 |
| 20260902101600 | 66 | 242 | 3.0 | 8.0 | 0.00 | 0.00 | 0.00 | 72 | 1019.9 |
| 20260902101057 | 66 | 254 | 4.0 | 10.0 | 0.00 | 0.00 | 0.00 | 72 | 1019.9 |
| 20260902100557 | 67 | 229 | 3.0 | 12.0 | 0.00 | 0.00 | 0.00 | 72 | 1019.9 |
| 20260902100101 | 68 | 219 | 2.0 | 12.0 | 0.00 | 0.00 | 0.00 | 72 | 1019.8 |
| 20260902095557 | 68 | 228 | 6.0 | 12.0 | 0.00 | 0.00 | 0.00 | 71 | 1019.9 |
| 20260902095056 | 67 | 269 | 4.0 | 8.0 | 0.00 | 0.00 | 0.00 | 76 | 1019.8 |
| 20260902094607 | 65 | 196 | 4.0 | 7.0 | 0.00 | 0.00 | 0.00 | 80 | 1019.9 |
| 20260902094057 | 64 | 185 | 1.0 | 3.0 | 0.00 | 0.00 | 0.00 | 81 | 1019.8 |
| 20260902093600 | 64 | 0 | 1.0 | 3.0 | 0.00 | 0.00 | 0.00 | 81 | 1019.9 |
| 20260902093106 | 63 | 185 | 1.0 | 3.0 | 0.00 | 0.00 | 0.00 | 81 | 1019.9 |
| 20260902092557 | 63 | 185 | 0.0 | 5.0 | 0.00 | 0.00 | 0.00 | 82 | 1019.9 |
| 20260902092100 | 63 | 185 | 1.0 | 5.0 | 0.00 | 0.00 | 0.00 | 82 | 1019.8 |
| 20260902091603 | 62 | 185 | 1.0 | 4.0 | 0.00 | 0.00 | 0.00 | 84 | 1019.9 |
| 20260902091057 | 62 | 185 | 0.0 | 4.0 | 0.00 | 0.00 | 0.00 | 85 | 1019.8 |
| 20260902090557 | 61 | 185 | 2.0 | 4.0 | 0.00 | 0.00 | 0.00 | 85 | 1019.8 |
| 20260902090120 | 61 | 185 | 1.0 | 4.0 | 0.00 | 0.00 | 0.00 | 86 | 1019.9 |
| 20260902085557 | 61 | 185 | 2.0 | 4.0 | 0.00 | 0.00 | 0.00 | 86 | 1019.9 |
| 20260902085056 | 61 | 185 | 1.0 | 4.0 | 0.00 | 0.00 | 0.00 | 87 | 1019.9 |
| 20260902084604 | 60 | 185 | 1.0 | 4.0 | 0.00 | 0.00 | 0.00 | 88 | 1019.9 |
| 20260902084057 | 60 | 185 | 1.0 | 4.0 | 0.00 | 0.00 | 0.00 | 87 | 1020.0 |
| 20260902083557 | 60 | 189 | 1.0 | 3.0 | 0.00 | 0.00 | 0.00 | 87 | 1019.9 |
| 20260902083106 | 60 | 189 | 1.0 | 4.0 | 0.00 | 0.00 | 0.00 | 87 | 1020.0 |
| 20260902082600 | 59 | 189 | 0.0 | 4.0 | 0.00 | 0.00 | 0.00 | 89 | 1020.0 |
| 20260902082057 | 59 | 0 | 1.0 | 4.0 | 0.00 | 0.00 | 0.00 | 89 | 1020.0 |
| 20260902081601 | 59 | 189 | 1.0 | 4.0 | 0.00 | 0.00 | 0.00 | 89 | 1020.0 |
| 20260902081057 | 59 | 188 | 1.0 | 5.0 | 0.00 | 0.00 | 0.00 | 90 | 1020.1 |
| 20260902080557 | 59 | 188 | 1.0 | 5.0 | 0.00 | 0.00 | 0.00 | 90 | 1019.9 |
| 20260902080059 | 59 | 188 | 1.0 | 5.0 | 0.00 | 0.00 | 0.00 | 90 | 1020.0 |
| 20260902075556 | 58 | 190 | 1.0 | 5.0 | 0.00 | 0.00 | 0.00 | 91 | 1019.9 |
| 20260902075058 | 58 | 185 | 1.0 | 4.0 | 0.00 | 0.00 | 0.00 | 92 | 1019.9 |
| 20260902074613 | 58 | 178 | 1.0 | 4.0 | 0.00 | 0.00 | 0.00 | 92 | 1019.9 |
| 20260902074056 | 57 | 178 | 0.0 | 4.0 | 0.00 | 0.00 | 0.00 | 93 | 1019.8 |
| 20260902073558 | 57 | 178 | 1.0 | 5.0 | 0.00 | 0.00 | 0.00 | 93 | 1019.8 |
| 20260902073104 | 57 | 178 | 1.0 | 5.0 | 0.00 | 0.00 | 0.00 | 93 | 1019.8 |
| 20260902072556 | 57 | 178 | 0.0 | 5.0 | 0.00 | 0.00 | 0.00 | 94 | 1019.8 |
| 20260902072056 | 56 | 178 | 1.0 | 5.0 | 0.00 | 0.00 | 0.00 | 94 | 1019.8 |
| 20260902071606 | 56 | 188 | 3.0 | 8.0 | 0.00 | 0.00 | 0.00 | 94 | 1019.8 |
| 20260902071057 | 56 | 187 | 2.0 | 8.0 | 0.00 | 0.00 | 0.00 | 94 | 1019.9 |
| 20260902070556 | 56 | 169 | 2.0 | 8.0 | 0.00 | 0.00 | 0.00 | 94 | 1019.8 |
| 20260902070105 | 56 | 165 | 2.0 | 8.0 | 0.00 | 0.00 | 0.00 | 94 | 1019.8 |
| 20260902065557 | 56 | 160 | 3.0 | 8.0 | 0.00 | 0.08 | 0.00 | 94 | 1019.8 |
| 20260902065058 | 55 | 169 | 2.0 | 7.0 | 0.00 | 0.08 | 0.00 | 95 | 1019.8 |
| 20260902064601 | 55 | 178 | 3.0 | 9.0 | 0.00 | 0.08 | 0.00 | 95 | 1019.9 |
| 20260902064056 | 55 | 165 | 4.0 | 9.0 | 0.00 | 0.08 | 0.00 | 95 | 1019.8 |
| 20260902063556 | 55 | 177 | 1.0 | 9.0 | 0.00 | 0.08 | 0.00 | 95 | 1019.8 |
| 20260902063103 | 55 | 171 | 4.0 | 9.0 | 0.00 | 0.08 | 0.00 | 95 | 1019.8 |
| 20260902062555 | 55 | 167 | 3.0 | 8.0 | 0.00 | 0.08 | 0.00 | 95 | 1019.8 |
| 20260902062100 | 54 | 173 | 3.0 | 7.0 | 0.00 | 0.08 | 0.00 | 95 | 1019.8 |
| 20260902061101 | 54 | 187 | 3.0 | 7.0 | 0.00 | 0.08 | 0.00 | 95 | 1019.8 |
| 20260902060555 | 54 | 161 | 3.0 | 7.0 | 0.00 | 0.08 | 0.00 | 95 | 1019.9 |
| 20260902055556 | 54 | 168 | 3.0 | 7.0 | 0.00 | 0.08 | 0.00 | 95 | 1019.9 |
| 20260902055057 | 54 | 173 | 2.0 | 7.0 | 0.00 | 0.08 | 0.00 | 95 | 1019.8 |
| 20260902054641 | 54 | 172 | 3.0 | 6.0 | 0.00 | 0.08 | 0.00 | 95 | 1019.9 |
| 20260902054056 | 54 | 167 | 2.0 | 6.0 | 0.00 | 0.08 | 0.00 | 95 | 1019.8 |
| 20260902053556 | 54 | 163 | 3.0 | 6.0 | 0.00 | 0.08 | 0.00 | 95 | 1019.8 |
| 20260902053108 | 53 | 165 | 2.0 | 5.0 | 0.00 | 0.08 | 0.00 | 95 | 1019.9 |
| 20260902052556 | 53 | 165 | 1.0 | 6.0 | 0.00 | 0.08 | 0.00 | 95 | 1019.8 |
| 20260902052056 | 53 | 165 | 1.0 | 6.0 | 0.00 | 0.08 | 0.00 | 95 | 1019.8 |
| 20260902051602 | 53 | 167 | 2.0 | 6.0 | 0.00 | 0.08 | 0.00 | 96 | 1019.8 |
| 20260902051056 | 53 | 167 | 2.0 | 6.0 | 0.00 | 0.08 | 0.00 | 95 | 1019.8 |
| 20260902050556 | 53 | 170 | 1.0 | 6.0 | 0.00 | 0.08 | 0.00 | 95 | 1019.9 |
| 20260902045556 | 53 | 171 | 2.0 | 6.0 | 0.00 | 0.08 | 0.00 | 95 | 1019.8 |
| 20260902045058 | 53 | 169 | 2.0 | 6.0 | 0.00 | 0.08 | 0.00 | 95 | 1019.8 |
| 20260902044611 | 53 | 171 | 3.0 | 7.0 | 0.00 | 0.08 | 0.00 | 95 | 1019.8 |
| 20260902044057 | 53 | 171 | 3.0 | 7.0 | 0.00 | 0.08 | 0.00 | 95 | 1019.8 |
| 20260902043556 | 53 | 173 | 3.0 | 6.0 | 0.00 | 0.08 | 0.00 | 95 | 1019.8 |
| 20260902043109 | 53 | 172 | 4.0 | 7.0 | 0.00 | 0.08 | 0.00 | 95 | 1019.8 |
| 20260902042556 | 52 | 0 | 3.0 | 7.0 | 0.00 | 0.08 | 0.00 | 95 | 1019.8 |
| 20260902042056 | 52 | 167 | 3.0 | 6.0 | 0.00 | 0.08 | 0.00 | 95 | 1019.9 |
| 20260902041603 | 52 | 167 | 3.0 | 6.0 | 0.00 | 0.08 | 0.00 | 95 | 1019.9 |
| 20260902041056 | 52 | 192 | 1.0 | 4.0 | 0.00 | 0.08 | 0.00 | 95 | 1019.9 |
| 20260902040558 | 51 | 0 | 1.0 | 3.0 | 0.00 | 0.08 | 0.00 | 95 | 1019.9 |
| 20260902040107 | 51 | 214 | 1.0 | 3.0 | 0.00 | 0.08 | 0.00 | 94 | 1019.9 |
| 20260902035556 | 51 | 0 | 0.0 | 3.0 | 0.00 | 0.08 | 0.00 | 94 | 1019.9 |
| 20260902035058 | 51 | 0 | 0.0 | 2.0 | 0.00 | 0.08 | 0.00 | 94 | 1019.9 |
| 20260902034606 | 50 | 0 | 0.0 | 0.0 | 0.00 | 0.08 | 0.00 | 94 | 1019.9 |
| 20260902034056 | 50 | 0 | 0.0 | 0.0 | 0.00 | 0.08 | 0.00 | 93 | 1020.0 |
| 20260902033600 | 50 | 0 | 0.0 | 0.0 | 0.00 | 0.08 | 0.00 | 93 | 1020.0 |
| 20260902033101 | 50 | 0 | 0.0 | 0.0 | 0.00 | 0.08 | 0.00 | 93 | 1020.0 |
| 20260902032557 | 50 | 0 | 0.0 | 0.0 | 0.00 | 0.08 | 0.00 | 93 | 1020.1 |
| 20260902032056 | 50 | 0 | 0.0 | 0.0 | 0.00 | 0.08 | 0.00 | 93 | 1020.0 |
| 20260902031608 | 51 | 0 | 0.0 | 0.0 | 0.00 | 0.08 | 0.00 | 93 | 1020.1 |
| 20260902031058 | 51 | 0 | 0.0 | 0.0 | 0.00 | 0.08 | 0.00 | 93 | 1020.1 |
| 20260902030556 | 51 | 0 | 0.0 | 0.0 | 0.00 | 0.08 | 0.00 | 93 | 1020.1 |
| 20260902030104 | 51 | 0 | 0.0 | 0.0 | 0.00 | 0.08 | 0.00 | 93 | 1020.2 |
| 20260902025557 | 51 | 0 | 0.0 | 0.0 | 0.00 | 0.08 | 0.00 | 93 | 1020.2 |
| 20260902025057 | 51 | 0 | 0.0 | 0.0 | 0.00 | 0.08 | 0.00 | 93 | 1020.2 |
| 20260902024605 | 51 | 0 | 0.0 | 0.0 | 0.00 | 0.08 | 0.00 | 93 | 1020.2 |
| 20260902024056 | 51 | 0 | 0.0 | 0.0 | 0.00 | 0.08 | 0.00 | 93 | 1020.2 |
| 20260902023557 | 51 | 0 | 0.0 | 0.0 | 0.00 | 0.08 | 0.00 | 93 | 1020.2 |
| 20260902023110 | 51 | 0 | 0.0 | 0.0 | 0.00 | 0.08 | 0.00 | 92 | 1020.2 |
| 20260902022557 | 51 | 0 | 0.0 | 0.0 | 0.00 | 0.08 | 0.00 | 92 | 1020.2 |
| 20260902022057 | 51 | 0 | 0.0 | 0.0 | 0.00 | 0.08 | 0.00 | 92 | 1020.2 |
| 20260902021603 | 51 | 0 | 0.0 | 0.0 | 0.00 | 0.08 | 0.00 | 92 | 1020.3 |
| 20260902021059 | 51 | 0 | 0.0 | 0.0 | 0.00 | 0.08 | 0.00 | 92 | 1020.2 |
| 20260902020602 | 51 | 0 | 0.0 | 0.0 | 0.00 | 0.08 | 0.00 | 92 | 1020.2 |
| 20260902020105 | 51 | 0 | 0.0 | 0.0 | 0.00 | 0.08 | 0.00 | 92 | 1020.0 |
| 20260902015557 | 51 | 0 | 0.0 | 0.0 | 0.00 | 0.08 | 0.00 | 92 | 1019.9 |
| 20260902015058 | 52 | 0 | 0.0 | 0.0 | 0.00 | 0.08 | 0.00 | 92 | 1019.9 |
| 20260902014600 | 52 | 0 | 0.0 | 0.0 | 0.00 | 0.08 | 0.00 | 92 | 1019.9 |
| 20260902014057 | 52 | 0 | 0.0 | 0.0 | 0.00 | 0.08 | 0.00 | 92 | 1019.9 |
| 20260902013558 | 52 | 0 | 0.0 | 0.0 | 0.00 | 0.08 | 0.00 | 92 | 1019.9 |
| 20260902013106 | 52 | 0 | 0.0 | 0.0 | 0.00 | 0.08 | 0.00 | 92 | 1019.9 |
| 20260902012600 | 52 | 0 | 0.0 | 0.0 | 0.00 | 0.08 | 0.00 | 92 | 1019.8 |
| 20260902012057 | 52 | 0 | 0.0 | 0.0 | 0.00 | 0.08 | 0.00 | 92 | 1019.8 |
| 20260902011601 | 53 | 0 | 0.0 | 0.0 | 0.00 | 0.08 | 0.00 | 92 | 1019.8 |
| 20260902011058 | 53 | 0 | 0.0 | 0.0 | 0.00 | 0.08 | 0.00 | 92 | 1019.9 |
| 20260902010557 | 53 | 0 | 0.0 | 0.0 | 0.00 | 0.08 | 0.00 | 92 | 1019.9 |
| 20260902010112 | 53 | 0 | 0.0 | 0.0 | 0.00 | 0.08 | 0.00 | 92 | 1019.9 |
| 20260902005558 | 53 | 0 | 0.0 | 0.0 | 0.00 | 0.08 | 0.00 | 92 | 1019.9 |
| 20260902005059 | 53 | 0 | 0.0 | 0.0 | 0.00 | 0.08 | 0.00 | 93 | 1020.0 |
| 20260902004607 | 53 | 0 | 0.0 | 0.0 | 0.00 | 0.08 | 0.00 | 93 | 1020.1 |
| 20260902004058 | 54 | 0 | 0.0 | 0.0 | 0.00 | 0.08 | 0.00 | 93 | 1020.1 |
| 20260902003558 | 54 | 0 | 0.0 | 0.0 | 0.00 | 0.08 | 0.00 | 93 | 1020.2 |
| 20260902003106 | 54 | 0 | 0.0 | 0.0 | 0.00 | 0.08 | 0.00 | 93 | 1020.2 |
| 20260902002600 | 54 | 0 | 0.0 | 0.0 | 0.00 | 0.08 | 0.00 | 93 | 1020.3 |
| 20260902002057 | 54 | 0 | 0.0 | 2.0 | 0.00 | 0.08 | 0.00 | 93 | 1020.3 |
| 20260902001621 | 54 | 0 | 0.0 | 3.0 | 0.00 | 0.08 | 0.00 | 93 | 1020.4 |
| 20260902001059 | 54 | 248 | 0.0 | 3.0 | 0.00 | 0.08 | 0.00 | 93 | 1020.4 |
| 20260902000557 | 54 | 0 | 1.0 | 3.0 | 0.00 | 0.08 | 0.00 | 93 | 1020.3 |
| 20260902000108 | 54 | 248 | 1.0 | 3.0 | 0.00 | 0.08 | 0.00 | 93 | 1020.3 |
| 20260901235557 | 54 | 248 | 0.0 | 3.0 | 0.00 | 0.08 | 0.00 | 93 | 1020.2 |
| 20260901235058 | 54 | 248 | 1.0 | 3.0 | 0.00 | 0.08 | 0.00 | 93 | 1020.3 |
| 20260901234604 | 54 | 0 | 0.0 | 1.0 | 0.00 | 0.08 | 0.00 | 93 | 1020.2 |
| 20260901234057 | 54 | 0 | 0.0 | 2.0 | 0.00 | 0.08 | 0.00 | 93 | 1020.3 |
| 20260901233556 | 55 | 0 | 0.0 | 2.0 | 0.00 | 0.08 | 0.00 | 93 | 1020.2 |
| 20260901233105 | 55 | 0 | 0.0 | 3.0 | 0.00 | 0.08 | 0.00 | 93 | 1020.2 |
| 20260901232558 | 55 | 248 | 0.0 | 3.0 | 0.00 | 0.08 | 0.00 | 93 | 1020.3 |
| 20260901232057 | 55 | 248 | 1.0 | 3.0 | 0.00 | 0.08 | 0.00 | 93 | 1020.3 |
| 20260901231607 | 55 | 248 | 1.0 | 3.0 | 0.00 | 0.08 | 0.00 | 93 | 1020.3 |
| 20260901231056 | 55 | 0 | 0.0 | 2.0 | 0.00 | 0.08 | 0.00 | 92 | 1020.2 |